| time (UTC) | temp F | wind direction | speed MPH | gust MPH | rain 1hr in | rain 24hr in | rain mn in | humidity % | barometer mb |
| 20260903103004 | 69 | 263 | 1.0 | 3.0 | 0.00 | 1.10 | 0.00 | 94 | 1014.0 |
| 20260903101609 | 69 | 262 | 0.0 | 3.0 | 0.00 | 1.10 | 0.00 | 94 | 1013.8 |
| 20260903101502 | 69 | 256 | 0.0 | 3.0 | 0.00 | 1.10 | 0.00 | 94 | 1013.9 |
| 20260903100103 | 69 | 252 | 1.0 | 4.0 | 0.00 | 1.10 | 0.00 | 94 | 1013.6 |
| 20260903100002 | 69 | 252 | 1.0 | 2.0 | 0.00 | 1.10 | 0.00 | 94 | 1013.6 |
| 20260903094524 | 69 | 249 | 1.0 | 2.0 | 0.00 | 1.10 | 0.00 | 94 | 1013.5 |
| 20260903093055 | 69 | 260 | 1.0 | 3.0 | 0.00 | 1.10 | 0.00 | 94 | 1013.5 |
| 20260903091536 | 69 | 253 | 1.0 | 4.0 | 0.00 | 1.10 | 0.00 | 94 | 1013.6 |
| 20260903090036 | 69 | 239 | 1.0 | 4.0 | 0.00 | 1.10 | 0.00 | 94 | 1013.5 |
| 20260903084535 | 69 | 254 | 1.0 | 3.0 | 0.00 | 1.10 | 0.00 | 94 | 1013.5 |
| 20260903083037 | 69 | 248 | 1.0 | 6.0 | 0.00 | 1.10 | 0.00 | 94 | 1013.4 |
| 20260903081530 | 69 | 273 | 1.0 | 4.0 | 0.00 | 1.10 | 0.00 | 94 | 1013.3 |
| 20260903080017 | 69 | 263 | 2.0 | 8.0 | 0.00 | 1.10 | 0.00 | 94 | 1013.4 |
| 20260903074517 | 69 | 277 | 2.0 | 4.0 | 0.00 | 1.10 | 0.00 | 95 | 1013.2 |
| 20260903073019 | 69 | 267 | 2.0 | 6.0 | 0.00 | 1.10 | 0.00 | 95 | 1013.1 |
| 20260903071514 | 69 | 266 | 2.0 | 4.0 | 0.00 | 1.10 | 0.00 | 95 | 1013.2 |
| 20260903070011 | 69 | 251 | 1.0 | 4.0 | 0.00 | 1.10 | 0.00 | 95 | 1013.4 |
| 20260903064513 | 69 | 242 | 1.0 | 2.0 | 0.00 | 1.10 | 0.00 | 96 | 1013.5 |
| 20260903063033 | 69 | 264 | 1.0 | 2.0 | 0.00 | 1.10 | 0.00 | 96 | 1013.6 |
| 20260903061511 | 69 | 248 | 1.0 | 3.0 | 0.00 | 1.10 | 0.00 | 96 | 1013.5 |
| 20260903060050 | 69 | 250 | 1.0 | 3.0 | 0.00 | 1.10 | 0.00 | 96 | 1013.6 |
| 20260903054529 | 69 | 239 | 1.0 | 3.0 | 0.00 | 1.10 | 0.00 | 96 | 1013.5 |
| 20260903053011 | 68 | 265 | 1.0 | 2.0 | 0.00 | 1.10 | 0.00 | 96 | 1014.0 |
| 20260903051510 | 68 | 263 | 1.0 | 3.0 | 0.00 | 1.10 | 0.00 | 96 | 1013.6 |
| 20260903050013 | 68 | 267 | 1.0 | 3.0 | 0.00 | 1.10 | 0.00 | 96 | 1013.3 |
| 20260903044531 | 68 | 266 | 1.0 | 2.0 | 0.00 | 1.10 | 0.00 | 96 | 1013.2 |
| 20260903043039 | 68 | 252 | 0.0 | 2.0 | 0.00 | 1.10 | 0.00 | 96 | 1012.9 |
| 20260903041503 | 68 | 254 | 0.0 | 2.0 | 0.00 | 1.10 | 0.00 | 96 | 1012.8 |
| 20260903040100 | 68 | 193 | 1.0 | 3.0 | 0.00 | 1.10 | 0.00 | 96 | 1012.5 |
| 20260903034511 | 69 | 213 | 1.0 | 3.0 | 0.00 | 1.10 | 1.10 | 96 | 1012.7 |
| 20260903033037 | 69 | 281 | 0.0 | 2.0 | 0.00 | 1.10 | 1.10 | 96 | 1012.8 |
| 20260903031554 | 69 | 181 | 0.0 | 2.0 | 0.00 | 1.10 | 1.10 | 96 | 1013.5 |
| 20260903030008 | 69 | 250 | 1.0 | 2.0 | 0.00 | 1.10 | 1.10 | 96 | 1013.7 |
| 20260903024506 | 69 | 262 | 1.0 | 3.0 | 0.00 | 1.10 | 1.10 | 96 | 1013.9 |
| 20260903023027 | 70 | 221 | 0.0 | 2.0 | 0.00 | 1.10 | 1.10 | 96 | 1014.0 |
| 20260903021519 | 70 | 153 | 0.0 | 3.0 | 0.02 | 1.10 | 1.10 | 96 | 1013.7 |
| 20260903020042 | 70 | 225 | 1.0 | 7.0 | 0.03 | 1.10 | 1.10 | 96 | 1014.5 |
| 20260903014552 | 70 | 231 | 2.0 | 7.0 | 0.04 | 1.10 | 1.10 | 96 | 1013.1 |
| 20260903013046 | 70 | 138 | 2.0 | 5.0 | 0.06 | 1.10 | 1.10 | 96 | 1013.0 |
| 20260903011557 | 70 | 136 | 1.0 | 4.0 | 0.08 | 1.08 | 1.08 | 96 | 1014.0 |
| 20260903010042 | 70 | 186 | 3.0 | 8.0 | 0.09 | 1.07 | 1.07 | 95 | 1013.6 |
| 20260903004541 | 70 | 140 | 0.0 | 1.0 | 0.11 | 1.06 | 1.06 | 96 | 1013.7 |
| 20260903003041 | 70 | 182 | 0.0 | 2.0 | 0.22 | 1.04 | 1.04 | 95 | 1013.4 |
| 20260903001511 | 70 | 304 | 0.0 | 2.0 | 0.54 | 1.00 | 1.00 | 95 | 1014.1 |
| 20260903000017 | 70 | 19 | 0.0 | 2.0 | 0.77 | 0.98 | 0.98 | 94 | 1013.4 |
| 20260902234535 | 70 | 229 | 1.0 | 3.0 | 0.75 | 0.95 | 0.95 | 93 | 1014.3 |
| 20260902233021 | 70 | 151 | 0.0 | 3.0 | 0.60 | 0.80 | 0.82 | 90 | 1014.1 |
| 20260902231551 | 73 | 120 | 3.0 | 19.0 | 0.27 | 0.47 | 0.48 | 84 | 1014.3 |
| 20260902230039 | 81 | 100 | 0.0 | 2.0 | 0.01 | 0.21 | 0.21 | 86 | 1012.6 |
| 20260902224529 | 81 | 188 | 1.0 | 3.0 | 0.00 | 0.20 | 0.20 | 84 | 1012.0 |
| 20260902223024 | 82 | 120 | 0.0 | 2.0 | 0.00 | 0.20 | 0.20 | 84 | 1012.7 |
| 20260902221528 | 82 | 184 | 0.0 | 2.0 | 0.00 | 0.20 | 0.20 | 83 | 1012.1 |
| 20260902220030 | 82 | 170 | 0.0 | 3.0 | 0.00 | 0.20 | 0.20 | 82 | 1012.1 |
| 20260902214527 | 82 | 261 | 0.0 | 1.0 | 0.00 | 0.20 | 0.20 | 82 | 1012.4 |
| 20260902213013 | 82 | 251 | 0.0 | 2.0 | 0.00 | 0.20 | 0.20 | 81 | 1013.1 |
| 20260902211557 | 82 | 265 | 0.0 | 3.0 | 0.00 | 0.20 | 0.20 | 82 | 1013.4 |
| 20260902210059 | 83 | 254 | 1.0 | 3.0 | 0.00 | 0.20 | 0.20 | 81 | 1013.4 |
| 20260902210002 | 83 | 248 | 1.0 | 3.0 | 0.00 | 0.20 | 0.20 | 80 | 1013.4 |
| 20260902204554 | 83 | 259 | 0.0 | 2.0 | 0.00 | 0.20 | 0.20 | 80 | 1013.5 |
| 20260902203047 | 83 | 232 | 1.0 | 5.0 | 0.00 | 0.20 | 0.20 | 79 | 1014.1 |
| 20260902201511 | 84 | 267 | 0.0 | 4.0 | 0.00 | 0.20 | 0.20 | 79 | 1014.3 |
| 20260902200035 | 84 | 268 | 1.0 | 4.0 | 0.00 | 0.20 | 0.20 | 79 | 1014.6 |
| 20260902194541 | 83 | 238 | 2.0 | 6.0 | 0.00 | 0.20 | 0.20 | 78 | 1014.7 |
| 20260902193039 | 82 | 261 | 2.0 | 6.0 | 0.00 | 0.20 | 0.20 | 78 | 1014.8 |
| 20260902191538 | 82 | 250 | 2.0 | 7.0 | 0.00 | 0.20 | 0.20 | 79 | 1014.6 |
| 20260902190041 | 81 | 221 | 1.0 | 4.0 | 0.00 | 0.20 | 0.20 | 81 | 1014.8 |
| 20260902184525 | 81 | 251 | 2.0 | 7.0 | 0.00 | 0.20 | 0.20 | 81 | 1014.8 |
| 20260902183023 | 81 | 269 | 2.0 | 5.0 | 0.00 | 0.20 | 0.20 | 80 | 1014.5 |
| 20260902181520 | 81 | 269 | 2.0 | 4.0 | 0.00 | 0.20 | 0.20 | 80 | 1014.5 |
| 20260902180023 | 81 | 227 | 1.0 | 4.0 | 0.00 | 0.20 | 0.20 | 82 | 1014.7 |
| 20260902174530 | 81 | 250 | 1.0 | 7.0 | 0.00 | 0.20 | 0.20 | 81 | 1014.8 |
| 20260902173023 | 82 | 227 | 2.0 | 7.0 | 0.00 | 0.20 | 0.20 | 80 | 1015.1 |
| 20260902171517 | 82 | 254 | 2.0 | 8.0 | 0.00 | 0.20 | 0.20 | 78 | 1015.7 |
| 20260902170021 | 82 | 257 | 1.0 | 5.0 | 0.00 | 0.20 | 0.20 | 78 | 1015.6 |
| 20260902164532 | 82 | 277 | 2.0 | 8.0 | 0.00 | 0.20 | 0.20 | 78 | 1015.3 |
| 20260902163030 | 81 | 207 | 2.0 | 7.0 | 0.00 | 0.20 | 0.20 | 79 | 1015.2 |
| 20260902161534 | 80 | 263 | 1.0 | 8.0 | 0.00 | 0.20 | 0.20 | 84 | 1015.3 |
| 20260902160025 | 79 | 285 | 1.0 | 8.0 | 0.00 | 0.20 | 0.20 | 86 | 1015.4 |
| 20260902154542 | 77 | 257 | 2.0 | 7.0 | 0.00 | 0.20 | 0.20 | 88 | 1015.4 |
| 20260902153045 | 75 | 238 | 1.0 | 7.0 | 0.00 | 0.20 | 0.20 | 93 | 1015.6 |